Temp
-33 -33 -32 -32 -32 -31 -31 -31 -30 -30 -29 -29 -28 -28 -28 -27 -27 -26 -26 -26 -26 -26 -26 -26 -26 -26 -26 -26 -25 -25 -25 -25 -25 -25 -25 -24 -24 -24 -24 -24 -24 -23 -23 -23 -23 -23 -23 -23 -23 -23 -23 -22 -22 -22 -22 -21 -21 -21 -21 -21 -21 -20 -20 -19 -19 -19 -19 -19 -19 -18 -18 -18 -18 -18
-33 -33 -33 -33 -32 -32 -32 -31 -31 -30 -30 -29 -29 -28 -28 -28 -27 -27 -26 -26 -26 -26 -26 -26 -26 -26 -26 -26 -25 -25 -25 -25 -25 -25 -25 -25 -25 -24 -24 -24 -24 -24 -24 -24 -24 -24 -24 -24 -24 -24 -23 -23 -23 -22 -22 -22 -22 -22 -22 -22 -22 -21 -21 -20 -20 -20 -20 -20 -19 -19 -19 -19 -18 -18
-34 -33 -33 -33 -33 -32 -32 -32 -31 -30 -30 -30 -30 -29 -29 -29 -28 -28 -27 -27 -26 -27 -27 -27 -27 -27 -27 -26 -26 -26 -25 -25 -25 -25 -25 -25 -25 -25 -25 -24 -24 -24 -24 -24 -24 -24 -24 -24 -24 -24 -24 -24 -23 -23 -23 -23 -23 -23 -23 -22 -22 -22 -22 -21 -21 -21 -21 -21 -20 -20 -20 -20 -19 -19
-35 -34 -34 -33 -33 -33 -32 -32 -31 -31 -31 -30 -30 -30 -29 -29 -29 -28 -28 -27 -27 -27 -27 -27 -27 -27 -27 -27 -26 -26 -26 -25 -25 -26 -25 -25 -25 -25 -25 -25 -25 -24 -24 -24 -24 -24 -24 -24 -24 -24 -24 -24 -24 -24 -23 -23 -23 -23 -23 -23 -23 -23 -23 -22 -22 -22 -22 -21 -21 -21 -21 -21 -20 -20
-35 -35 -35 -34 -33 -33 -32 -32 -32 -31 -31 -31 -30 -30 -30 -30 -29 -29 -29 -28 -28 -28 -28 -28 -28 -27 -27 -27 -27 -26 -26 -26 -26 -26 -26 -25 -25 -25 -25 -25 -25 -24 -24 -24 -24 -24 -24 -24 -24 -24 -24 -24 -24 -24 -24 -24 -24 -23 -23 -23 -23 -23 -23 -23 -23 -22 -22 -22 -22 -21 -21 -21 -21 -21
-35 -35 -35 -35 -34 -34 -33 -33 -33 -32 -32 -31 -31 -31 -30 -30 -30 -29 -29 -29 -28 -28 -28 -28 -28 -28 -28 -27 -27 -27 -26 -26 -26 -26 -26 -25 -25 -25 -25 -25 -25 -25 -24 -24 -24 -24 -24 -24 -24 -24 -24 -24 -24 -24 -24 -24 -24 -24 -24 -24 -24 -24 -23 -23 -23 -23 -23 -22 -22 -22 -22 -22 -22 -21
-35 -35 -35 -35 -35 -35 -34 -34 -34 -33 -32 -32 -31 -31 -31 -30 -30 -30 -29 -29 -29 -28 -28 -28 -28 -29 -28 -28 -27 -27 -27 -27 -27 -26 -26 -26 -26 -25 -25 -25 -25 -25 -25 -24 -24 -24 -24 -24 -24 -24 -24 -24 -24 -24 -24 -24 -24 -24 -24 -24 -24 -24 -24 -24 -23 -23 -23 -23 -23 -23 -22 -22 -22 -22
-35 -35 -35 -35 -35 -35 -35 -34 -34 -34 -33 -32 -31 -31 -31 -31 -30 -30 -30 -29 -29 -29 -28 -28 -28 -28 -29 -28 -28 -28 -27 -27 -27 -27 -26 -26 -26 -26 -26 -25 -25 -25 -25 -25 -24 -25 -25 -25 -25 -24 -24 -24 -24 -24 -24 -24 -24 -24 -24 -24 -24 -24 -24 -24 -24 -23 -23 -23 -23 -23 -23 -23 -22 -22
-34 -34 -35 -35 -35 -35 -35 -35 -34 -34 -33 -32 -32 -32 -31 -31 -31 -30 -30 -30 -29 -29 -29 -28 -28 -28 -28 -28 -28 -28 -28 -28 -27 -27 -27 -27 -26 -26 -26 -26 -26 -25 -25 -25 -25 -25 -25 -25 -25 -25 -25 -25 -25 -25 -24 -24 -24 -24 -24 -24 -24 -24 -24 -24 -24 -24 -24 -23 -23 -23 -23 -23 -23 -23
-34 -34 -34 -34 -35 -35 -35 -35 -35 -34 -34 -33 -33 -32 -32 -31 -31 -31 -30 -30 -30 -29 -29 -29 -29 -28 -28 -28 -28 -28 -28 -28 -28 -28 -27 -27 -27 -27 -26 -26 -26 -26 -26 -26 -25 -25 -25 -25 -25 -25 -25 -25 -25 -25 -25 -25 -25 -25 -24 -24 -24 -24 -24 -24 -24 -24 -24 -24 -24 -23 -23 -23 -23 -23
-34 -34 -34 -34 -34 -34 -34 -34 -34 -34 -34 -34 -33 -33 -32 -32 -31 -31 -31 -30 -30 -30 -29 -29 -29 -29 -28 -28 -28 -28 -28 -28 -28 -28 -28 -27 -27 -27 -27 -26 -26 -26 -26 -26 -26 -26 -25 -25 -25 -25 -25 -25 -25 -25 -25 -25 -25 -25 -25 -24 -24 -24 -24 -24 -24 -24 -24 -24 -24 -24 -24 -24 -24 -23
-34 -34 -34 -34 -34 -34 -34 -34 -34 -34 -34 -34 -33 -33 -33 -32 -32 -32 -31 -31 -30 -30 -30 -29 -29 -29 -29 -29 -29 -29 -29 -28 -28 -28 -28 -28 -27 -27 -27 -27 -27 -27 -27 -26 -26 -26 -26 -26 -26 -25 -25 -25 -25 -25 -25 -25 -25 -25 -25 -25 -24 -24 -24 -24 -24 -24 -24 -24 -24 -24 -24 -24 -24 -24
-34 -34 -34 -34 -34 -34 -34 -34 -34 -34 -34 -34 -33 -33 -33 -33 -32 -32 -32 -31 -31 -31 -30 -30 -29 -29 -29 -29 -29 -29 -29 -28 -28 -28 -28 -28 -28 -28 -28 -27 -27 -27 -27 -27 -27 -27 -26 -26 -26 -26 -26 -26 -26 -26 -26 -26 -26 -25 -25 -25 -25 -25 -24 -24 -24 -24 -24 -25 -25 -24 -24 -24 -24 -24
-33 -34 -34 -34 -34 -34 -34 -34 -33 -33 -33 -33 -33 -33 -33 -33 -33 -32 -32 -32 -31 -31 -31 -30 -30 -29 -29 -29 -29 -29 -28 -28 -28 -29 -29 -28 -28 -28 -28 -28 -28 -27 -27 -27 -27 -27 -27 -27 -26 -26 -26 -26 -26 -26 -26 -26 -26 -26 -26 -26 -25 -25 -25 -24 -24 -24 -25 -25 -25 -25 -25 -25 -24 -24
-33 -33 -33 -33 -33 -33 -33 -33 -33 -33 -33 -33 -33 -33 -33 -33 -33 -33 -32 -32 -32 -31 -31 -31 -30 -30 -29 -29 -29 -29 -29 -29 -28 -28 -28 -28 -28 -28 -28 -28 -28 -27 -27 -27 -27 -27 -27 -27 -27 -27 -26 -26 -26 -26 -26 -26 -26 -26 -26 -26 -26 -26 -25 -25 -25 -25 -25 -25 -25 -25 -25 -25 -25 -25
-33 -33 -33 -33 -33 -33 -33 -33 -33 -33 -33 -33 -33 -33 -33 -33 -33 -33 -33 -32 -32 -32 -32 -31 -31 -31 -30 -30 -30 -29 -29 -29 -29 -29 -28 -28 -28 -28 -28 -28 -27 -27 -27 -27 -27 -27 -27 -27 -27 -27 -27 -27 -27 -27 -26 -26 -26 -26 -26 -26 -26 -26 -26 -26 -25 -25 -25 -25 -25 -25 -25 -25 -25 -25
-33 -33 -33 -33 -33 -33 -33 -33 -33 -33 -33 -33 -33 -33 -33 -33 -33 -33 -33 -33 -33 -32 -32 -32 -32 -31 -31 -31 -30 -30 -30 -30 -29 -29 -29 -28 -28 -28 -28 -28 -28 -28 -27 -27 -27 -27 -27 -27 -27 -27 -27 -27 -27 -27 -27 -27 -26 -26 -26 -26 -26 -26 -26 -26 -26 -26 -26 -25 -25 -25 -25 -25 -25 -25
-33 -33 -33 -33 -33 -33 -33 -33 -33 -33 -33 -33 -33 -33 -33 -33 -33 -33 -33 -33 -33 -33 -33 -32 -32 -32 -32 -31 -31 -31 -31 -31 -30 -30 -29 -29 -29 -29 -28 -28 -28 -28 -28 -27 -27 -27 -27 -27 -27 -27 -27 -27 -27 -27 -27 -27 -27 -27 -26 -27 -27 -27 -27 -27 -26 -26 -26 -26 -26 -26 -26 -26 -25 -25
-33 -33 -33 -33 -33 -33 -33 -33 -33 -33 -33 -33 -33 -33 -33 -33 -33 -33 -33 -33 -33 -33 -33 -33 -33 -33 -33 -32 -32 -32 -32 -31 -31 -31 -31 -30 -30 -29 -29 -29 -28 -28 -28 -28 -27 -27 -27 -27 -27 -28 -28 -28 -28 -28 -28 -28 -28 -27 -27 -27 -27 -27 -27 -27 -27 -27 -27 -26 -26 -26 -26 -26 -26 -26
-33 -33 -33 -33 -33 -33 -33 -33 -33 -33 -33 -33 -33 -33 -33 -33 -33 -33 -33 -33 -33 -33 -33 -33 -33 -33 -33 -33 -33 -33 -33 -32 -32 -32 -31 -31 -31 -30 -30 -29 -29 -28 -28 -28 -28 -28 -27 -28 -28 -28 -28 -28 -28 -28 -28 -29 -29 -28 -28 -27 -27 -27 -27 -27 -27 -27 -27 -27 -27 -27 -27 -26 -26 -26
-33 -33 -33 -33 -33 -33 -33 -33 -33 -33 -33 -33 -33 -33 -33 -33 -33 -33 -33 -33 -33 -33 -33 -33 -33 -33 -33 -33 -33 -33 -33 -33 -33 -32 -32 -32 -31 -31 -30 -30 -30 -30 -29 -29 -29 -29 -28 -28 -28 -28 -28 -28 -28 -29 -29 -29 -29 -29 -28 -28 -28 -28 -28 -27 -27 -27 -27 -27 -27 -27 -27 -27 -27 -27
-33 -33 -33 -33 -33 -33 -33 -33 -33 -33 -33 -33 -33 -33 -33 -33 -33 -33 -34 -33 -33 -33 -33 -33 -33 -33 -33 -33 -33 -33 -33 -33 -33 -32 -32 -32 -32 -32 -31 -31 -31 -31 -30 -30 -30 -30 -29 -29 -29 -29 -29 -29 -29 -29 -29 -29 -29 -29 -29 -29 -29 -29 -28 -28 -28 -28 -28 -28 -27 -27 -27 -27 -27 -27
-33 -33 -33 -33 -33 -33 -33 -33 -33 -33 -33 -33 -33 -33 -33 -33 -34 -34 -34 -34 -34 -34 -34 -34 -34 -34 -33 -33 -33 -33 -33 -33 -33 -32 -32 -32 -32 -32 -32 -32 -32 -32 -31 -31 -31 -31 -30 -30 -30 -30 -30 -30 -31 -31 -31 -30 -30 -30 -30 -29 -29 -29 -29 -29 -28 -28 -28 -28 -28 -28 -28 -28 -28 -28
-33 -33 -33 -33 -33 -33 -33 -33 -34 -34 -34 -34 -34 -34 -34 -34 -34 -34 -34 -34 -34 -34 -34 -34 -34 -34 -34 -34 -34 -34 -33 -33 -33 -33 -33 -32 -32 -32 -32 -32 -32 -32 -32 -32 -32 -32 -32 -31 -31 -31 -31 -31 -31 -31 -31 -31 -31 -31 -30 -30 -30 -30 -30 -29 -29 -29 -29 -29 -29 -29 -28 -28 -28 -28
-33 -33 -33 -33 -33 -33 -33 -34 -34 -34 -34 -35 -35 -34 -34 -34 -34 -35 -35 -35 -35 -35 -34 -34 -34 -34 -34 -34 -34 -34 -34 -34 -33 -33 -33 -33 -33 -33 -33 -33 -33 -33 -33 -33 -33 -33 -32 -32 -32 -32 -32 -32 -31 -31 -32 -31 -31 -31 -31 -31 -31 -30 -30 -30 -30 -30 -29 -29 -29 -29 -29 -29 -29 -28
-33 -33 -33 -33 -33 -34 -34 -34 -34 -35 -35 -35 -35 -35 -35 -35 -35 -35 -35 -35 -35 -35 -35 -35 -35 -35 -34 -34 -34 -34 -34 -34 -34 -34 -33 -33 -33 -33 -33 -33 -33 -33 -33 -33 -33 -33 -33 -33 -33 -33 -32 -32 -32 -32 -32 -32 -32 -31 -31 -31 -31 -31 -31 -31 -30 -30 -30 -30 -30 -29 -29 -29 -29 -29
-33 -33 -33 -33 -34 -34 -34 -34 -35 -35 -35 -36 -36 -36 -36 -36 -36 -35 -35 -35 -35 -35 -35 -35 -35 -35 -35 -35 -35 -35 -35 -34 -34 -34 -34 -33 -33 -33 -33 -33 -34 -34 -34 -34 -34 -33 -33 -33 -33 -33 -33 -33 -33 -32 -32 -32 -32 -32 -32 -31 -31 -31 -31 -31 -31 -31 -31 -30 -30 -30 -30 -30 -30 -29
-33 -33 -33 -33 -34 -34 -34 -35 -35 -36 -36 -36 -36 -36 -36 -36 -36 -36 -36 -36 -36 -36 -36 -35 -35 -35 -35 -35 -35 -35 -35 -35 -34 -34 -34 -34 -34 -34 -34 -34 -34 -35 -35 -34 -34 -34 -34 -34 -33 -33 -33 -33 -33 -33 -33 -32 -32 -32 -32 -32 -32 -31 -31 -31 -31 -31 -31 -31 -31 -30 -30 -30 -30 -30
-33 -33 -33 -33 -33 -34 -35 -35 -35 -36 -36 -36 -36 -36 -36 -36 -36 -36 -36 -36 -36 -36 -36 -36 -36 -36 -36 -35 -35 -35 -35 -35 -35 -35 -35 -35 -35 -35 -35 -35 -35 -35 -35 -35 -35 -34 -34 -34 -34 -34 -34 -34 -34 -33 -33 -33 -33 -33 -32 -32 -32 -32 -32 -32 -31 -31 -31 -31 -31 -31 -31 -30 -30 -30
-33 -33 -33 -33 -33 -34 -34 -35 -35 -36 -36 -36 -36 -36 -36 -36 -36 -36 -36 -36 -36 -36 -36 -36 -36 -36 -36 -35 -35 -35 -35 -35 -35 -35 -35 -35 -35 -35 -35 -35 -35 -35 -35 -35 -35 -35 -35 -35 -35 -35 -34 -34 -34 -34 -34 -34 -33 -33 -33 -33 -32 -32 -32 -32 -32 -31 -31 -31 -31 -31 -31 -31 -31 -30
-33 -33 -33 -33 -33 -34 -34 -34 -35 -35 -36 -36 -36 -36 -36 -36 -36 -36 -36 -37 -37 -37 -37 -36 -36 -36 -36 -35 -35 -35 -35 -35 -35 -35 -35 -35 -35 -35 -35 -35 -35 -36 -36 -36 -36 -35 -35 -35 -35 -35 -35 -35 -35 -34 -34 -34 -34 -34 -34 -33 -33 -33 -33 -33 -32 -32 -32 -32 -31 -31 -31 -31 -31 -31
-33 -33 -33 -33 -33 -34 -34 -34 -34 -35 -35 -35 -36 -36 -36 -36 -36 -36 -37 -37 -37 -36 -36 -36 -36 -36 -35 -35 -35 -35 -35 -35 -35 -36 -36 -36 -36 -36 -36 -36 -36 -36 -36 -36 -36 -36 -36 -36 -36 -36 -36 -35 -35 -35 -35 -34 -34 -34 -34 -34 -34 -34 -33 -33 -33 -33 -33 -32 -32 -32 -32 -32 -31 -31
-33 -33 -33 -33 -33 -33 -34 -34 -34 -34 -34 -35 -35 -35 -36 -36 -36 -36 -36 -36 -36 -36 -36 -36 -36 -35 -35 -35 -35 -35 -35 -35 -35 -36 -36 -36 -36 -36 -36 -36 -36 -36 -36 -36 -36 -36 -37 -37 -37 -36 -36 -36 -36 -36 -35 -35 -35 -35 -35 -34 -34 -34 -34 -34 -34 -34 -33 -33 -33 -33 -33 -33 -33 -32
-33 -33 -33 -33 -33 -33 -34 -34 -34 -34 -34 -34 -34 -35 -35 -35 -35 -36 -36 -36 -36 -36 -35 -35 -35 -35 -35 -35 -35 -35 -35 -35 -36 -36 -36 -36 -36 -36 -36 -36 -36 -36 -36 -36 -37 -37 -37 -37 -37 -37 -37 -37 -36 -36 -36 -36 -36 -36 -35 -35 -35 -35 -35 -35 -34 -34 -34 -34 -34 -34 -34 -34 -34 -33
-33 -33 -33 -33 -33 -33 -33 -34 -34 -34 -34 -34 -34 -34 -35 -35 -35 -35 -35 -35 -35 -35 -35 -35 -35 -35 -35 -35 -35 -35 -35 -36 -36 -36 -36 -36 -36 -36 -36 -36 -36 -36 -36 -36 -36 -37 -37 -37 -37 -37 -37 -37 -37 -37 -37 -37 -37 -37 -36 -36 -36 -36 -36 -35 -35 -35 -35 -35 -35 -35 -35 -35 -34 -34
-33 -33 -33 -33 -33 -33 -33 -33 -34 -34 -34 -34 -34 -34 -34 -35 -35 -35 -35 -35 -35 -35 -35 -35 -35 -35 -35 -35 -35 -35 -35 -35 -35 -35 -35 -35 -35 -35 -35 -36 -36 -36 -36 -36 -36 -36 -36 -36 -36 -36 -37 -37 -37 -37 -37 -37 -37 -37 -37 -37 -37 -37 -36 -36 -36 -36 -36 -36 -36 -35 -35 -35 -35 -35
-33 -33 -33 -33 -33 -33 -33 -33 -33 -33 -34 -34 -34 -34 -34 -34 -35 -35 -35 -35 -35 -35 -35 -35 -35 -35 -35 -35 -35 -35 -35 -35 -35 -35 -35 -35 -35 -35 -35 -35 -35 -35 -35 -35 -35 -35 -35 -36 -36 -36 -36 -37 -37 -37 -37 -37 -37 -37 -37 -37 -37 -37 -37 -37 -36 -36 -36 -36 -36 -36 -36 -36 -36 -36
-33 -33 -33 -33 -33 -33 -33 -33 -33 -33 -33 -34 -34 -34 -34 -34 -34 -34 -34 -34 -34 -34 -34 -34 -34 -34 -34 -34 -34 -34 -34 -34 -34 -34 -34 -34 -34 -34 -34 -34 -34 -34 -35 -35 -35 -35 -35 -35 -36 -36 -36 -36 -36 -37 -37 -37 -37 -37 -37 -37 -37 -37 -37 -37 -37 -37 -37 -37 -37 -36 -36 -36 -36 -36
-33 -33 -33 -33 -33 -33 -33 -33 -33 -33 -33 -33 -34 -34 -34 -34 -34 -34 -34 -34 -34 -34 -34 -34 -34 -34 -34 -34 -34 -34 -34 -34 -34 -34 -34 -34 -34 -34 -34 -34 -34 -34 -35 -35 -35 -35 -35 -35 -35 -36 -36 -36 -36 -36 -36 -36 -36 -36 -37 -37 -37 -37 -37 -37 -37 -37 -37 -37 -37 -37 -37 -37 -37 -37
-32 -33 -33 -33 -33 -33 -33 -33 -33 -33 -33 -33 -33 -33 -33 -33 -34 -34 -34 -34 -34 -33 -33 -33 -33 -33 -33 -34 -34 -33 -34 -34 -34 -34 -34 -34 -34 -34 -34 -34 -34 -34 -34 -35 -35 -35 -35 -35 -35 -35 -35 -35 -35 -35 -36 -36 -36 -36 -36 -36 -36 -37 -37 -37 -37 -37 -37 -37 -37 -37 -37 -37 -37 -37
-32 -32 -32 -32 -32 -32 -32 -32 -32 -33 -33 -33 -33 -33 -33 -33 -33 -33 -33 -33 -33 -33 -33 -33 -33 -33 -33 -33 -33 -33 -33 -33 -33 -33 -33 -33 -33 -33 -34 -34 -34 -34 -34 -34 -34 -35 -35 -35 -35 -35 -35 -35 -35 -35 -36 -36 -36 -36 -36 -36 -36 -36 -36 -36 -36 -36 -36 -36 -36 -36 -36 -36 -36 -36
-32 -32 -32 -32 -32 -32 -32 -32 -32 -32 -32 -32 -33 -33 -33 -33 -33 -33 -33 -33 -33 -33 -33 -33 -33 -33 -33 -33 -33 -33 -33 -33 -33 -33 -33 -33 -33 -33 -33 -34 -34 -34 -34 -34 -34 -34 -34 -34 -34 -35 -35 -35 -35 -36 -36 -36 -36 -36 -36 -36 -36 -36 -36 -36 -36 -36 -36 -36 -36 -36 -36 -36 -36 -36
-32 -32 -32 -32 -32 -32 -32 -32 -32 -32 -32 -32 -32 -32 -32 -32 -32 -32 -32 -32 -32 -32 -32 -32 -32 -32 -32 -33 -33 -33 -33 -33 -33 -33 -33 -33 -33 -33 -34 -34 -34 -34 -34 -34 -34 -34 -34 -35 -35 -35 -35 -35 -35 -35 -36 -36 -36 -36 -36 -36 -36 -36 -36 -36 -36 -36 -36 -36 -36 -36 -36 -36 -36 -36
-31 -32 -32 -31 -31 -31 -31 -31 -31 -31 -31 -32 -32 -32 -32 -32 -32 -32 -32 -32 -32 -32 -32 -32 -32 -32 -32 -32 -32 -32 -32 -32 -32 -33 -33 -33 -33 -33 -33 -34 -34 -34 -34 -34 -35 -35 -35 -35 -35 -35 -35 -35 -35 -35 -36 -36 -36 -36 -36 -36 -36 -36 -36 -36 -36 -36 -36 -36 -36 -36 -36 -36 -36 -36
-31 -31 -31 -31 -31 -31 -31 -31 -31 -31 -31 -31 -31 -31 -32 -32 -32 -32 -32 -32 -32 -32 -32 -32 -32 -32 -32 -32 -32 -32 -32 -32 -32 -32 -32 -33 -33 -33 -33 -33 -34 -34 -34 -34 -35 -35 -35 -35 -35 -35 -35 -36 -36 -36 -36 -36 -36 -36 -36 -36 -36 -36 -36 -36 -36 -36 -36 -36 -36 -36 -36 -36 -36 -36
Height
5295 5301 5307 5313 5321 5328 5334 5339 5345 5353 5363 5372 5380 5387 5392 5399 5407 5415 5424 5433 5443 5451 5458 5466 5473 5479 5483 5484 5487 5492 5498 5503 5508 5513 5517 5522 5527 5533 5539 5543 5547 5551 5555 5560 5565 5569 5573 5576 5579 5582 5586 5590 5594 5598 5602 5605 5609 5612 5616 5617 5619 5621 5625 5630 5634 5637 5640 5643 5647 5651 5654 5657 5661 5665
5288 5293 5299 5304 5310 5316 5322 5328 5333 5342 5352 5360 5368 5375 5382 5388 5395 5403 5412 5422 5432 5438 5446 5454 5460 5466 5472 5474 5477 5482 5488 5494 5499 5505 5510 5514 5518 5523 5528 5533 5538 5542 5546 5551 5556 5560 5564 5568 5571 5574 5577 5581 5585 5589 5593 5597 5600 5604 5607 5609 5610 5613 5617 5621 5625 5628 5630 5633 5637 5641 5645 5648 5651 5655
5280 5285 5290 5295 5301 5307 5312 5318 5324 5333 5343 5350 5357 5365 5372 5378 5385 5392 5401 5410 5419 5426 5433 5442 5448 5454 5460 5463 5466 5472 5478 5484 5490 5496 5502 5506 5510 5513 5518 5524 5529 5534 5538 5542 5547 5552 5556 5560 5563 5566 5569 5572 5576 5580 5584 5588 5591 5595 5598 5600 5602 5605 5609 5612 5615 5619 5622 5625 5628 5632 5636 5639 5641 5646
5274 5278 5282 5287 5293 5298 5304 5311 5318 5325 5334 5341 5348 5355 5362 5369 5375 5382 5389 5397 5407 5415 5422 5429 5436 5442 5447 5451 5456 5463 5469 5475 5481 5487 5492 5497 5500 5505 5510 5515 5520 5525 5529 5533 5538 5543 5547 5551 5554 5558 5561 5563 5567 5571 5576 5579 5582 5585 5588 5591 5594 5597 5601 5604 5607 5611 5613 5616 5620 5623 5627 5630 5632 5637
5269 5272 5276 5280 5286 5291 5298 5304 5309 5316 5324 5332 5339 5345 5351 5358 5365 5372 5378 5386 5396 5404 5410 5418 5425 5431 5436 5441 5448 5455 5460 5466 5472 5477 5482 5487 5491 5496 5502 5507 5511 5516 5520 5524 5528 5533 5537 5541 5545 5549 5553 5555 5558 5562 5566 5570 5573 5576 5579 5582 5585 5588 5593 5596 5599 5603 5605 5608 5611 5614 5618 5621 5623 5628
5264 5268 5271 5276 5280 5285 5290 5296 5301 5307 5314 5320 5328 5335 5342 5349 5356 5363 5368 5376 5385 5392 5400 5407 5414 5420 5427 5433 5439 5445 5450 5455 5460 5466 5472 5477 5482 5487 5492 5496 5501 5507 5511 5515 5519 5523 5527 5532 5536 5541 5544 5547 5550 5552 5557 5561 5564 5567 5570 5573 5576 5580 5584 5587 5590 5594 5597 5599 5602 5605 5609 5612 5615 5619
5261 5264 5268 5272 5275 5279 5283 5289 5294 5297 5302 5309 5317 5325 5333 5340 5347 5354 5360 5366 5374 5382 5389 5397 5404 5410 5417 5424 5429 5434 5439 5444 5448 5455 5461 5467 5472 5477 5482 5487 5492 5496 5501 5506 5509 5513 5518 5522 5527 5531 5535 5538 5541 5542 5546 5551 5555 5558 5561 5564 5568 5570 5574 5578 5582 5585 5588 5591 5594 5597 5600 5604 5607 5609
5258 5261 5264 5268 5271 5274 5278 5283 5286 5289 5294 5303 5310 5317 5324 5331 5339 5345 5351 5357 5364 5371 5379 5387 5394 5400 5407 5413 5418 5422 5427 5433 5439 5445 5450 5456 5461 5467 5472 5477 5482 5486 5491 5496 5500 5504 5508 5512 5516 5521 5525 5529 5531 5532 5535 5540 5545 5550 5552 5555 5558 5561 5564 5569 5573 5576 5580 5582 5585 5588 5592 5595 5598 5601
5255 5258 5261 5264 5267 5270 5274 5278 5281 5284 5290 5297 5303 5310 5316 5323 5330 5336 5341 5348 5354 5360 5368 5377 5385 5390 5396 5401 5407 5412 5417 5423 5429 5434 5440 5446 5451 5456 5461 5467 5473 5477 5480 5485 5491 5495 5499 5502 5507 5511 5515 5519 5522 5523 5526 5530 5535 5540 5543 5545 5549 5552 5555 5560 5564 5567 5571 5573 5576 5580 5584 5587 5590 5593
5253 5255 5258 5261 5264 5267 5270 5274 5277 5281 5285 5290 5296 5302 5308 5315 5321 5327 5332 5339 5344 5350 5358 5367 5374 5380 5386 5392 5397 5402 5408 5413 5418 5423 5429 5434 5440 5446 5452 5457 5462 5466 5470 5474 5479 5484 5488 5493 5497 5500 5504 5508 5511 5514 5517 5520 5524 5529 5533 5536 5539 5542 5546 5551 5555 5558 5562 5565 5568 5572 5576 5579 5582 5585
5250 5253 5256 5258 5261 5264 5267 5271 5274 5277 5280 5284 5289 5295 5300 5306 5311 5317 5324 5330 5336 5342 5349 5356 5363 5370 5377 5382 5387 5391 5396 5401 5407 5413 5418 5425 5431 5437 5442 5446 5450 5454 5458 5462 5466 5471 5476 5481 5486 5490 5494 5497 5500 5504 5508 5511 5514 5518 5522 5526 5529 5533 5536 5541 5546 5549 5553 5556 5559 5562 5566 5569 5573 5576
5248 5250 5253 5256 5259 5262 5265 5268 5270 5273 5276 5280 5284 5288 5293 5298 5303 5309 5315 5321 5326 5332 5338 5345 5352 5359 5365 5370 5375 5379 5384 5390 5398 5406 5411 5416 5421 5425 5428 5433 5437 5441 5445 5450 5454 5459 5464 5469 5474 5479 5483 5486 5490 5494 5497 5500 5504 5507 5511 5515 5519 5523 5526 5531 5536 5540 5543 5546 5548 5552 5556 5559 5562 5566
5246 5249 5251 5254 5257 5259 5262 5265 5268 5270 5273 5277 5280 5284 5288 5292 5297 5302 5307 5312 5318 5323 5328 5334 5341 5347 5354 5360 5365 5370 5375 5383 5391 5396 5399 5402 5406 5410 5414 5418 5423 5428 5433 5438 5443 5448 5453 5457 5462 5467 5472 5476 5480 5483 5486 5490 5494 5497 5500 5504 5508 5512 5516 5521 5525 5529 5533 5536 5538 5542 5545 5549 5552 5555
5245 5247 5249 5252 5254 5257 5260 5262 5265 5268 5271 5274 5278 5281 5284 5288 5292 5297 5301 5306 5311 5315 5320 5325 5331 5338 5345 5351 5357 5362 5368 5374 5378 5381 5385 5389 5393 5397 5401 5406 5411 5417 5422 5427 5432 5437 5441 5445 5450 5455 5461 5465 5468 5472 5476 5480 5484 5487 5490 5493 5496 5501 5505 5510 5514 5518 5521 5525 5528 5531 5535 5538 5541 5545
5244 5246 5248 5250 5253 5255 5257 5260 5263 5265 5268 5271 5274 5277 5281 5284 5288 5292 5296 5301 5304 5308 5312 5317 5322 5329 5336 5342 5348 5353 5357 5361 5364 5369 5374 5377 5381 5385 5391 5396 5401 5406 5411 5415 5420 5424 5428 5433 5437 5443 5449 5454 5457 5461 5465 5469 5472 5476 5479 5482 5485 5490 5495 5499 5503 5507 5510 5513 5517 5520 5524 5527 5531 5534
5243 5245 5247 5249 5251 5253 5256 5258 5260 5263 5266 5268 5271 5274 5277 5280 5284 5288 5292 5295 5299 5302 5306 5310 5315 5321 5328 5333 5337 5342 5346 5348 5352 5356 5361 5364 5370 5376 5381 5386 5391 5395 5399 5402 5406 5411 5416 5420 5425 5431 5437 5441 5445 5449 5453 5457 5461 5465 5469 5471 5475 5480 5484 5488 5492 5495 5498 5502 5505 5509 5512 5516 5520 5524
5241 5243 5245 5247 5249 5252 5254 5256 5258 5260 5263 5265 5268 5271 5273 5277 5280 5283 5286 5290 5293 5296 5300 5303 5308 5314 5318 5323 5327 5331 5334 5335 5339 5343 5349 5354 5360 5366 5371 5376 5381 5383 5385 5388 5393 5399 5404 5409 5414 5420 5425 5429 5433 5437 5441 5444 5449 5454 5457 5461 5464 5468 5473 5477 5481 5484 5487 5490 5494 5498 5501 5505 5509 5513
5239 5241 5243 5245 5247 5249 5251 5253 5255 5257 5260 5262 5264 5267 5270 5273 5276 5279 5282 5285 5287 5290 5294 5298 5302 5306 5309 5314 5318 5320 5321 5324 5328 5333 5338 5343 5348 5353 5358 5362 5365 5368 5372 5377 5382 5388 5395 5400 5404 5409 5413 5417 5421 5426 5429 5432 5436 5441 5445 5449 5453 5457 5461 5465 5469 5473 5476 5480 5484 5487 5490 5494 5499 5503
5238 5240 5241 5243 5245 5246 5248 5250 5252 5254 5256 5258 5261 5264 5266 5269 5272 5274 5277 5280 5282 5285 5288 5292 5295 5298 5301 5305 5308 5309 5311 5315 5319 5322 5326 5330 5334 5339 5343 5347 5351 5357 5364 5369 5373 5378 5384 5389 5392 5397 5401 5405 5409 5414 5417 5421 5424 5428 5432 5437 5441 5445 5449 5454 5457 5461 5466 5470 5474 5477 5480 5484 5488 5492
5238 5240 5241 5243 5244 5245 5247 5248 5249 5251 5253 5255 5257 5260 5262 5265 5267 5270 5272 5275 5277 5280 5283 5286 5289 5291 5294 5297 5300 5302 5304 5308 5310 5312 5316 5320 5325 5329 5334 5339 5345 5350 5356 5360 5363 5367 5372 5376 5380 5384 5388 5392 5396 5401 5405 5409 5412 5416 5420 5424 5429 5433 5437 5442 5446 5450 5454 5459 5462 5466 5469 5473 5476 5480
5238 5239 5240 5241 5242 5243 5244 5245 5247 5248 5250 5252 5254 5256 5258 5261 5263 5266 5268 5269 5271 5274 5277 5279 5282 5284 5287 5290 5293 5296 5298 5301 5302 5305 5310 5314 5317 5320 5325 5330 5336 5340 5344 5348 5351 5355 5360 5364 5368 5371 5375 5379 5384 5388 5393 5397 5400 5404 5408 5412 5417 5422 5426 5430 5433 5438 5442 5446 5450 5454 5457 5461 5464 5467
5237 5237 5238 5239 5240 5241 5241 5242 5243 5244 5245 5247 5249 5251 5253 5256 5259 5261 5263 5264 5266 5268 5270 5273 5276 5278 5281 5284 5287 5290 5292 5294 5296 5300 5304 5307 5309 5312 5317 5321 5325 5327 5331 5336 5339 5342 5347 5352 5356 5359 5363 5367 5372 5376 5381 5385 5388 5392 5396 5401 5406 5410 5414 5418 5421 5425 5429 5433 5437 5441 5445 5448 5451 5454
5235 5236 5236 5236 5237 5237 5237 5238 5238 5238 5239 5241 5243 5245 5247 5250 5254 5256 5256 5258 5260 5262 5265 5267 5270 5272 5275 5278 5281 5284 5286 5288 5291 5294 5297 5299 5302 5307 5310 5313 5315 5318 5323 5327 5328 5330 5335 5340 5343 5347 5351 5356 5360 5365 5370 5374 5377 5381 5385 5389 5393 5398 5402 5406 5410 5413 5417 5420 5424 5427 5431 5435 5437 5440
5233 5233 5233 5233 5233 5233 5233 5233 5233 5232 5232 5233 5235 5237 5240 5245 5248 5248 5249 5251 5253 5255 5258 5261 5264 5266 5269 5272 5276 5278 5281 5283 5286 5288 5290 5292 5296 5299 5302 5305 5308 5312 5316 5316 5316 5319 5324 5328 5332 5336 5340 5344 5349 5354 5359 5363 5366 5370 5374 5378 5382 5385 5389 5393 5397 5402 5405 5408 5411 5414 5417 5421 5424 5426
5231 5231 5231 5231 5230 5230 5229 5228 5226 5225 5224 5224 5226 5228 5233 5238 5239 5239 5242 5244 5246 5248 5251 5255 5258 5262 5264 5268 5271 5274 5276 5279 5281 5282 5284 5287 5289 5291 5294 5298 5301 5305 5307 5306 5307 5311 5315 5319 5323 5326 5329 5333 5338 5344 5348 5352 5355 5359 5362 5367 5370 5373 5377 5381 5385 5390 5393 5396 5399 5402 5405 5408 5409 5412
5229 5229 5229 5228 5227 5226 5224 5221 5219 5218 5217 5216 5217 5220 5224 5227 5229 5232 5235 5237 5239 5242 5245 5249 5253 5257 5260 5264 5267 5270 5272 5274 5276 5277 5278 5280 5282 5284 5287 5290 5293 5297 5298 5298 5299 5303 5307 5310 5314 5317 5320 5324 5327 5332 5336 5340 5343 5347 5351 5355 5359 5361 5364 5368 5372 5377 5380 5384 5387 5389 5392 5395 5397 5400
5228 5227 5226 5225 5223 5220 5216 5213 5211 5210 5208 5208 5210 5213 5216 5218 5221 5224 5227 5230 5233 5237 5240 5244 5248 5252 5256 5260 5263 5266 5268 5269 5270 5271 5272 5274 5275 5277 5280 5283 5286 5289 5290 5290 5293 5296 5299 5302 5305 5308 5311 5313 5316 5320 5325 5329 5332 5335 5339 5342 5345 5348 5352 5356 5360 5363 5367 5370 5373 5376 5379 5383 5385 5388
5226 5225 5224 5222 5219 5215 5211 5207 5205 5203 5202 5202 5204 5206 5209 5211 5214 5218 5221 5224 5228 5232 5236 5240 5244 5248 5252 5256 5259 5261 5262 5264 5265 5266 5267 5269 5270 5272 5274 5276 5279 5281 5282 5284 5287 5289 5292 5295 5297 5299 5301 5303 5306 5310 5314 5317 5320 5323 5326 5328 5332 5336 5339 5343 5346 5349 5352 5356 5359 5362 5366 5369 5372 5375
5224 5223 5222 5220 5217 5212 5207 5203 5200 5198 5197 5198 5199 5201 5204 5206 5209 5213 5217 5221 5224 5228 5232 5236 5240 5245 5248 5252 5254 5256 5258 5260 5262 5263 5264 5265 5267 5268 5270 5271 5273 5274 5276 5277 5280 5282 5284 5287 5289 5290 5292 5294 5297 5301 5303 5305 5308 5310 5312 5316 5319 5323 5326 5329 5332 5336 5339 5342 5345 5348 5352 5355 5358 5361
5223 5222 5221 5219 5216 5211 5206 5201 5197 5195 5195 5196 5197 5199 5201 5204 5207 5211 5215 5218 5221 5225 5229 5233 5237 5241 5244 5247 5250 5252 5254 5256 5258 5259 5260 5261 5262 5264 5265 5266 5268 5269 5270 5272 5273 5275 5277 5279 5280 5282 5284 5286 5289 5291 5293 5295 5297 5299 5302 5304 5307 5310 5313 5316 5319 5322 5325 5328 5331 5334 5338 5341 5345 5348
5221 5220 5219 5218 5215 5211 5207 5202 5199 5196 5196 5196 5197 5199 5201 5204 5207 5210 5213 5216 5219 5222 5226 5229 5233 5237 5241 5244 5246 5248 5250 5252 5254 5255 5256 5257 5258 5259 5260 5261 5262 5264 5265 5266 5267 5269 5270 5272 5273 5274 5276 5278 5280 5281 5282 5284 5287 5290 5291 5294 5296 5298 5301 5304 5307 5309 5312 5315 5318 5322 5325 5329 5332 5334
5220 5219 5218 5217 5215 5212 5209 5206 5202 5200 5199 5198 5199 5200 5202 5204 5207 5209 5212 5215 5217 5221 5224 5228 5232 5235 5239 5242 5244 5246 5247 5249 5250 5251 5252 5253 5254 5255 5255 5256 5257 5258 5259 5260 5261 5262 5263 5263 5264 5265 5267 5268 5269 5271 5272 5274 5277 5280 5281 5283 5285 5287 5290 5293 5294 5296 5299 5302 5306 5309 5312 5315 5318 5320
5218 5218 5217 5216 5215 5213 5211 5209 5207 5205 5203 5203 5203 5203 5204 5205 5207 5210 5213 5215 5218 5221 5225 5228 5231 5234 5237 5239 5241 5243 5244 5245 5246 5247 5248 5248 5249 5250 5250 5251 5252 5253 5254 5254 5255 5255 5255 5256 5256 5257 5257 5259 5260 5261 5263 5265 5267 5269 5270 5272 5274 5276 5279 5281 5282 5284 5288 5291 5294 5297 5299 5302 5304 5306
5218 5217 5217 5216 5215 5214 5212 5211 5210 5208 5207 5207 5206 5206 5207 5208 5210 5212 5214 5217 5220 5222 5225 5228 5231 5233 5235 5237 5238 5240 5241 5242 5242 5243 5244 5244 5245 5245 5246 5247 5247 5248 5249 5249 5249 5250 5249 5249 5249 5249 5250 5250 5252 5253 5255 5257 5258 5259 5260 5261 5264 5265 5267 5269 5271 5274 5277 5280 5283 5285 5288 5290 5292 5293
5218 5217 5216 5216 5215 5214 5213 5212 5211 5211 5210 5210 5210 5210 5210 5211 5213 5214 5216 5218 5221 5223 5225 5228 5230 5231 5233 5234 5236 5237 5238 5238 5239 5239 5240 5240 5240 5240 5241 5242 5242 5242 5243 5243 5244 5244 5244 5243 5243 5243 5243 5244 5244 5246 5248 5249 5249 5250 5251 5252 5254 5255 5256 5257 5260 5263 5266 5269 5272 5274 5276 5278 5279 5280
5219 5218 5217 5216 5216 5215 5214 5213 5213 5212 5212 5212 5212 5212 5213 5214 5215 5217 5218 5220 5222 5223 5225 5227 5228 5229 5231 5232 5233 5233 5234 5235 5235 5236 5236 5236 5236 5236 5236 5237 5237 5237 5237 5237 5238 5238 5238 5238 5238 5238 5238 5238 5238 5240 5241 5241 5241 5242 5243 5244 5245 5246 5246 5248 5250 5253 5256 5258 5261 5263 5265 5267 5268 5268
5219 5218 5218 5217 5216 5215 5215 5214 5214 5213 5213 5213 5213 5214 5214 5215 5216 5218 5219 5220 5222 5223 5224 5225 5226 5227 5228 5229 5230 5230 5231 5231 5232 5232 5232 5232 5232 5232 5232 5232 5232 5232 5232 5232 5233 5233 5233 5233 5233 5233 5233 5233 5234 5235 5236 5235 5234 5235 5236 5237 5238 5238 5239 5241 5243 5245 5247 5248 5250 5252 5254 5257 5258 5257
5220 5220 5219 5218 5217 5216 5215 5215 5215 5215 5214 5214 5214 5215 5215 5216 5217 5218 5219 5219 5220 5222 5222 5223 5224 5225 5226 5226 5227 5227 5228 5228 5228 5228 5228 5228 5228 5228 5229 5229 5228 5229 5229 5229 5229 5229 5229 5229 5229 5228 5228 5228 5229 5230 5229 5228 5228 5229 5231 5231 5232 5233 5233 5235 5236 5237 5238 5239 5241 5243 5245 5248 5249 5247
5221 5220 5220 5219 5218 5217 5216 5216 5215 5215 5215 5215 5215 5215 5216 5216 5217 5218 5218 5219 5220 5220 5221 5222 5222 5223 5224 5224 5224 5225 5225 5225 5225 5225 5225 5225 5225 5225 5225 5225 5225 5225 5225 5225 5225 5224 5224 5224 5224 5223 5223 5223 5223 5224 5223 5222 5224 5225 5226 5226 5226 5226 5226 5227 5228 5229 5230 5231 5233 5235 5236 5238 5240 5239
5221 5221 5220 5220 5219 5219 5218 5217 5217 5216 5216 5216 5216 5216 5216 5217 5217 5218 5218 5219 5219 5220 5220 5221 5221 5222 5222 5222 5223 5223 5223 5223 5223 5223 5223 5222 5222 5222 5222 5222 5221 5221 5221 5220 5220 5220 5219 5218 5217 5217 5217 5218 5219 5219 5219 5218 5220 5221 5220 5219 5218 5218 5219 5220 5222 5223 5224 5224 5225 5227 5229 5230 5231 5231
5222 5221 5221 5220 5220 5219 5219 5218 5218 5218 5217 5217 5217 5217 5217 5217 5218 5218 5218 5219 5219 5219 5220 5220 5220 5220 5221 5221 5221 5221 5221 5221 5221 5220 5220 5220 5219 5219 5219 5218 5218 5217 5217 5216 5215 5214 5213 5213 5212 5213 5214 5214 5214 5214 5214 5214 5214 5213 5212 5211 5211 5212 5213 5214 5215 5216 5217 5217 5218 5219 5221 5221 5222 5223
5222 5221 5221 5220 5220 5220 5219 5219 5219 5218 5218 5218 5218 5218 5218 5218 5218 5218 5218 5218 5219 5219 5219 5219 5219 5219 5219 5219 5219 5219 5218 5218 5218 5217 5217 5216 5216 5215 5215 5214 5214 5213 5212 5211 5211 5210 5209 5209 5209 5209 5209 5209 5209 5208 5208 5208 5207 5206 5205 5205 5206 5206 5207 5208 5209 5209 5210 5210 5210 5212 5213 5213 5214 5216
5222 5221 5221 5220 5220 5220 5219 5219 5219 5219 5219 5218 5218 5218 5218 5218 5218 5218 5218 5218 5218 5218 5218 5218 5217 5217 5217 5217 5217 5216 5216 5215 5215 5214 5213 5213 5212 5211 5210 5210 5209 5208 5207 5207 5206 5205 5204 5204 5204 5204 5204 5203 5203 5202 5202 5201 5200 5200 5200 5199 5200 5200 5201 5201 5202 5202 5202 5203 5203 5204 5205 5205 5206 5208
5221 5221 5221 5220 5220 5220 5220 5220 5219 5219 5219 5219 5219 5218 5218 5218 5218 5217 5217 5217 5217 5217 5216 5216 5216 5215 5215 5215 5214 5214 5213 5212 5211 5211 5210 5209 5208 5207 5206 5205 5204 5203 5202 5201 5200 5200 5199 5198 5198 5198 5198 5197 5197 5196 5196 5196 5194 5194 5193 5193 5193 5194 5194 5194 5194 5194 5195 5196 5197 5197 5197 5197 5198 5199
5221 5221 5221 5221 5221 5221 5220 5220 5220 5220 5219 5219 5219 5218 5218 5218 5217 5217 5217 5216 5216 5216 5215 5215 5214 5214 5213 5213 5212 5211 5210 5209 5208 5207 5206 5205 5204 5203 5202 5200 5199 5198 5197 5196 5195 5194 5193 5192 5192 5192 5191 5190 5190 5190 5190 5189 5188 5187 5187 5187 5186 5186 5184 5184 5186 5187 5188 5190 5189 5188 5187 5188 5188 5189
Wind_Speed
70 74 78 81 85 90 94 98 101 102 102 101 102 101 101 102 101 101 100 97 93 92 91 91 92 88 83 83 86 87 89 91 89 83 81 83 85 85 84 84 84 84 84 83 82 81 80 78 78 78 78 78 77 76 75 74 73 72 72 72 72 74 75 75 74 74 74 75 75 75 75 75 75 75
63 67 71 74 79 84 90 95 99 101 100 99 100 101 100 100 100 100 100 98 94 93 92 91 92 93 90 86 84 85 87 91 91 87 81 79 81 84 84 84 83 83 84 84 83 82 81 80 79 79 79 79 79 77 76 75 74 72 72 72 72 73 74 74 74 73 73 74 74 74 74 74 74 75
56 60 64 68 73 78 85 90 95 97 97 97 97 98 99 98 98 98 98 98 96 94 93 93 92 93 94 94 89 85 86 88 89 89 86 81 80 82 83 84 83 83 83 83 83 83 82 81 80 80 79 80 79 78 77 76 74 73 72 72 73 72 72 73 73 73 73 73 73 73 73 73 74 74
48 53 58 63 68 73 78 83 87 91 93 94 94 95 96 96 96 96 95 96 96 94 93 93 94 94 95 97 96 92 90 88 86 87 89 87 85 84 83 83 82 81 81 82 83 83 83 83 82 81 80 80 80 79 78 76 75 74 73 73 73 73 72 72 72 72 73 72 72 72 72 72 73 73
40 45 50 56 61 66 70 75 80 84 87 90 91 92 93 94 94 94 94 94 94 94 93 92 93 95 96 96 96 96 95 93 89 87 89 89 88 87 86 85 84 81 78 79 81 82 83 83 83 82 81 81 80 79 78 77 76 75 74 74 74 74 73 72 73 73 73 73 73 73 72 72 72 72
34 37 42 46 51 56 61 66 71 76 81 85 88 89 90 91 92 92 93 93 93 93 93 92 91 92 94 96 96 96 96 96 94 91 90 90 89 87 86 85 87 86 82 77 78 80 82 82 83 82 82 82 82 81 79 77 76 76 75 74 74 73 73 73 73 73 73 73 73 73 73 73 72 72
32 33 35 37 42 48 54 59 63 70 76 80 84 86 87 88 90 91 91 91 92 92 92 92 92 91 90 91 94 96 96 96 95 93 91 91 91 90 88 85 85 88 89 84 78 76 78 80 80 80 81 81 81 82 81 79 79 79 78 75 74 73 74 73 72 72 72 72 72 72 72 72 72 72
30 31 31 33 36 41 47 52 58 65 70 73 77 81 84 86 87 89 90 90 91 91 91 90 91 93 92 90 90 92 94 95 95 94 92 92 92 91 90 88 86 86 90 91 86 78 73 74 77 78 78 79 80 81 81 81 80 80 79 77 74 74 74 73 73 72 71 71 70 70 70 69 69 69
26 27 29 31 33 37 41 47 52 58 62 66 70 75 79 82 84 86 88 89 90 90 90 89 89 91 93 94 92 91 90 91 92 93 93 92 92 91 91 90 88 85 86 90 93 89 80 74 75 78 79 80 81 82 83 83 82 80 79 78 76 75 75 74 73 73 73 72 70 69 68 68 67 67
23 25 27 29 31 34 37 41 45 49 53 58 63 68 74 77 80 83 86 88 89 90 89 88 88 88 90 93 95 94 92 90 88 89 91 92 92 92 91 90 89 86 84 85 90 93 90 82 77 78 80 82 84 85 86 86 85 83 82 81 79 78 76 75 74 74 74 73 72 70 69 68 67 66
21 23 25 27 29 31 33 36 39 42 46 50 55 60 67 72 76 80 83 85 87 88 89 88 87 87 88 89 92 95 96 95 92 89 89 91 91 92 92 92 91 89 87 86 86 89 91 88 82 78 78 80 83 86 88 88 87 86 85 83 82 80 78 77 76 76 75 74 73 72 71 70 69 68
20 21 23 25 27 29 31 33 35 38 41 44 48 53 59 65 71 76 80 83 85 87 88 89 88 87 87 88 90 93 95 96 95 93 92 92 92 93 93 93 93 92 91 90 89 88 89 89 86 82 78 77 77 78 82 85 87 89 88 87 85 83 81 79 78 78 77 76 75 74 73 73 72 71
19 20 21 23 25 27 29 32 34 36 38 40 42 46 50 56 63 69 74 79 82 84 86 88 89 88 88 88 89 90 91 92 92 94 95 96 96 96 95 95 95 95 93 92 91 90 90 90 89 87 83 80 77 75 75 77 79 83 86 87 88 87 85 83 81 81 80 78 77 76 75 75 74 74
19 20 20 21 23 25 27 30 32 35 36 38 39 41 44 48 53 59 66 72 76 80 83 85 87 88 88 88 88 88 89 90 91 92 94 96 97 97 97 97 96 96 95 94 93 92 91 91 91 90 88 86 83 80 78 76 75 76 78 81 84 86 87 87 85 84 83 81 80 80 79 78 78 77
19 19 20 21 23 25 26 28 30 33 35 37 39 40 42 44 46 50 55 60 66 71 76 79 83 85 87 87 87 88 88 90 91 92 93 94 96 97 97 97 97 96 96 96 95 94 93 92 92 92 92 90 89 87 84 82 80 79 78 78 79 80 83 85 86 86 85 84 83 83 82 81 81 80
18 18 19 20 22 24 25 27 28 30 32 35 37 39 41 43 44 46 48 51 55 60 64 69 73 78 81 83 85 87 88 90 91 92 93 94 95 95 96 96 96 97 97 97 97 96 95 94 93 93 93 93 92 91 90 88 86 84 83 82 81 80 79 80 82 84 85 85 85 84 83 82 81 81
15 16 18 19 21 23 25 26 27 29 31 32 35 37 40 41 43 45 46 48 51 53 56 60 63 66 70 74 77 80 83 87 90 92 94 95 95 95 95 95 96 98 98 98 98 97 96 96 95 94 93 93 93 93 93 93 92 90 88 86 84 82 81 81 81 82 83 84 85 85 85 83 82 82
14 15 16 18 20 22 23 25 27 28 30 31 33 35 37 39 41 43 44 46 48 50 52 53 56 58 61 64 67 70 75 79 83 86 89 91 93 94 95 96 97 99 100 100 99 98 97 96 96 95 95 93 93 92 92 93 94 94 93 91 89 86 84 83 83 83 83 83 84 85 85 85 84 83
11 12 13 14 16 18 20 22 24 26 28 30 32 33 35 37 39 41 43 44 45 47 48 49 50 52 54 57 59 62 66 70 74 78 81 85 88 92 94 97 98 99 99 100 100 100 99 98 97 97 96 95 94 92 91 90 92 94 95 95 94 92 90 88 86 86 85 84 84 84 84 85 85 84
7 7 9 10 12 14 16 18 20 22 24 26 28 30 32 34 36 38 40 42 44 46 47 47 49 50 51 52 54 56 58 61 64 68 72 77 81 85 89 92 94 96 97 99 100 101 101 100 99 98 97 97 95 94 92 91 91 93 94 94 94 94 93 92 91 89 88 87 87 86 86 86 85 85
6 7 9 11 13 15 17 19 21 23 25 26 27 28 30 31 32 34 35 38 40 42 44 45 47 49 51 51 52 53 54 55 58 61 63 67 71 75 79 83 86 89 92 94 97 98 100 101 100 99 98 97 96 96 95 94 93 93 93 93 91 91 91 91 92 91 91 90 90 90 89 89 89 88
7 9 11 13 15 18 20 23 25 27 28 29 30 31 32 32 32 33 34 36 37 39 40 41 43 45 47 49 51 52 54 55 56 56 56 59 61 64 68 71 75 79 83 87 90 93 95 97 98 98 97 96 95 95 95 94 94 94 94 93 92 91 90 90 89 90 91 91 91 91 91 91 91 91
9 11 13 16 18 21 23 26 28 30 32 33 33 35 36 35 35 36 37 38 39 39 40 40 40 41 42 44 45 47 50 53 55 55 56 57 57 57 58 61 64 68 71 76 82 86 90 92 94 95 95 94 93 92 91 91 92 92 92 92 92 92 92 92 91 89 89 90 91 91 92 92 92 93
11 13 16 18 21 23 26 28 31 34 36 38 38 39 39 37 37 39 41 41 42 42 42 42 42 42 41 42 42 42 44 46 49 52 55 57 57 56 56 56 57 58 60 65 71 76 81 85 89 91 93 93 93 91 89 89 90 90 91 91 91 92 92 93 94 93 92 91 91 92 93 93 94 94
13 15 18 20 23 25 28 32 35 37 38 40 42 42 41 39 40 42 43 43 44 44 44 44 43 42 41 41 40 40 40 41 42 44 47 51 54 57 58 57 57 56 56 59 62 66 70 75 80 84 88 91 92 92 91 90 90 90 91 91 91 92 92 92 93 94 95 95 95 95 96 97 97 97
15 17 19 21 24 27 30 32 34 35 37 39 41 41 40 40 42 43 43 44 45 45 45 44 43 41 40 38 37 36 35 35 36 38 41 44 48 52 55 58 58 58 58 59 60 61 63 66 70 75 80 84 87 90 91 92 92 92 92 92 92 92 93 93 93 94 95 96 98 98 99 99 100 100
15 17 19 21 24 28 29 29 29 30 32 34 35 36 37 38 40 41 43 44 45 45 44 43 42 40 38 36 34 32 31 31 32 35 38 41 43 47 50 53 56 58 59 59 60 61 62 63 64 67 70 75 80 84 87 90 92 93 94 94 94 95 95 95 95 95 96 97 98 100 101 101 101 101
14 15 18 20 24 27 26 25 25 26 27 27 28 30 31 35 37 38 39 40 41 41 41 41 40 38 36 33 32 30 30 29 29 30 32 35 37 40 42 45 49 53 56 58 60 61 62 62 63 64 66 69 72 75 79 83 88 91 94 95 96 97 97 97 98 98 98 98 99 100 101 102 103 103
13 14 16 18 22 24 21 20 20 19 18 18 20 23 26 29 31 32 33 34 35 36 36 37 37 35 33 32 31 30 29 28 28 28 29 30 31 33 35 37 40 44 49 53 57 60 61 62 63 64 65 67 68 69 72 75 79 83 88 91 94 96 98 99 100 101 101 101 101 101 102 103 104 105
11 13 14 16 19 20 18 15 13 11 10 10 11 15 19 21 23 24 25 27 28 29 30 31 32 32 32 32 31 30 28 28 28 29 30 31 31 32 33 35 36 38 41 44 48 52 56 59 62 64 66 67 68 69 70 71 73 76 79 82 86 90 93 96 99 101 102 103 103 104 104 104 105 106
9 11 13 13 15 17 18 15 9 2 5 8 9 11 13 15 16 17 19 21 23 25 27 29 30 31 32 31 30 28 28 28 29 30 31 32 33 34 35 37 37 38 39 41 42 45 48 51 54 58 61 64 67 70 71 72 73 74 75 77 78 81 84 87 90 93 97 99 101 103 103 104 105 105
7 8 10 11 11 14 16 17 15 11 8 8 9 11 11 12 13 14 16 19 21 23 25 27 28 29 28 28 27 27 28 28 30 31 31 32 32 33 34 34 34 34 35 36 37 40 42 45 48 51 54 57 61 65 69 72 74 75 75 76 77 78 79 80 81 83 86 89 92 94 97 98 100 101
4 6 8 9 9 10 12 14 16 16 14 13 12 12 12 12 13 14 16 17 19 20 22 23 24 24 24 25 25 26 27 27 28 28 29 29 29 30 30 30 29 29 30 31 32 34 37 40 44 48 52 54 56 58 61 64 68 71 74 77 78 79 79 79 80 81 81 82 83 84 86 88 89 92
4 5 6 7 8 9 9 10 12 14 14 14 14 14 13 12 13 14 15 16 17 19 20 21 21 21 22 23 23 23 24 25 26 27 28 28 30 31 31 31 31 32 32 33 33 35 37 39 40 43 47 51 54 54 55 56 57 61 65 70 73 76 78 80 81 81 81 81 81 81 81 82 83 84
5 6 7 7 7 8 8 8 9 9 10 11 12 12 12 11 11 11 12 13 14 15 15 16 17 18 19 20 21 22 24 25 27 28 29 30 31 32 33 34 35 35 36 36 36 38 39 40 40 39 40 43 47 49 51 52 54 56 58 61 64 67 72 76 78 79 80 80 80 81 81 81 82 84
6 7 8 8 8 8 8 8 8 8 7 8 8 8 8 8 9 9 10 10 11 12 13 14 16 17 19 21 22 24 25 26 27 28 29 29 30 30 31 31 32 32 32 34 35 36 38 38 38 37 36 36 38 40 43 46 48 50 52 54 56 59 62 66 69 71 73 75 76 78 79 80 81 83
8 7 8 9 9 9 9 9 9 8 7 7 6 6 5 5 5 6 8 9 10 11 13 14 16 17 18 19 21 22 23 24 24 25 26 26 26 26 26 26 27 27 27 27 28 29 30 32 33 34 34 34 34 34 37 40 42 43 44 46 48 51 53 56 58 61 63 66 69 71 73 74 76 78
9 8 8 8 8 9 10 10 9 9 8 8 7 6 5 4 3 3 4 5 7 8 10 11 12 13 14 15 16 17 18 20 21 22 23 24 25 25 26 26 26 26 26 26 26 26 27 28 29 31 32 33 33 34 37 40 41 41 42 43 44 46 48 50 52 54 56 58 59 61 63 64 66 69
8 8 8 8 8 8 8 9 9 8 8 7 6 6 5 4 3 2 1 1 2 4 5 6 8 9 10 12 13 14 15 16 18 19 21 22 23 25 26 27 27 28 28 28 29 29 29 30 31 33 34 34 34 35 37 38 38 38 39 41 44 46 48 49 50 51 52 53 54 55 55 57 58 60
7 7 7 7 7 7 7 7 7 7 6 6 5 5 4 4 3 2 1 1 2 3 4 5 7 8 9 11 12 13 14 16 17 18 19 20 22 23 24 25 26 27 28 29 30 30 31 32 34 36 36 36 35 35 36 37 37 38 40 43 45 47 47 47 47 47 48 49 50 50 51 52 53 55
6 5 5 5 5 5 5 5 5 5 5 5 4 4 3 3 2 1 1 2 3 4 6 7 8 9 11 12 13 14 16 17 18 19 20 21 22 23 24 25 26 27 27 29 30 31 33 34 35 34 34 33 33 34 35 35 36 38 41 43 44 45 45 45 45 46 47 48 48 49 49 50 51 51
5 5 4 4 4 4 4 4 4 4 4 4 4 3 3 3 2 2 2 3 4 5 6 7 8 9 11 12 13 14 16 17 18 19 21 22 23 24 26 27 28 29 30 31 32 33 34 34 34 33 33 33 34 34 35 35 37 39 41 42 42 43 43 44 45 45 46 47 47 47 47 48 48 49
3 3 3 3 3 3 4 4 4 4 4 5 4 4 4 4 4 3 4 4 5 5 6 7 8 9 10 11 13 14 15 16 18 19 20 22 23 25 26 28 29 31 32 33 34 35 36 37 37 36 36 37 37 37 37 38 39 40 41 42 42 43 43 43 44 45 45 46 46 46 46 46 47 47
3 3 3 3 3 4 4 5 5 5 5 5 5 5 5 5 5 5 5 5 6 6 7 7 8 9 10 11 12 13 14 16 17 19 20 22 23 25 27 28 30 31 33 35 36 37 38 39 39 39 39 40 41 41 41 41 42 43 44 44 45 44 45 45 46 46 46 46 46 46 47 48 48 49
5 5 5 5 5 5 5 5 5 5 5 5 5 5 6 6 6 6 6 6 6 7 7 8 9 9 10 11 12 13 14 16 17 18 20 21 23 24 26 28 29 31 33 34 36 37 38 39 40 40 41 42 43 43 43 44 46 46 47 47 48 49 50 51 50 50 49 48 48 50 51 51 52 52
Wind_Direction
235 235 234 234 232 231 230 231 231 230 230 231 231 232 233 234 233 233 232 232 232 231 230 230 228 228 231 236 237 235 233 233 232 233 237 239 239 238 236 236 238 239 239 239 240 241 241 242 243 245 246 246 246 246 246 246 247 247 247 247 247 248 247 247 247 247 247 247 247 247 247 247 248 248
235 234 234 233 232 231 230 231 231 230 229 230 230 231 232 233 233 233 232 231 231 230 229 228 228 228 228 232 236 237 235 233 232 233 235 237 239 239 238 236 237 238 239 240 240 241 242 242 243 244 246 247 248 248 247 248 247 247 247 247 247 247 247 247 246 246 246 247 247 247 247 247 247 248
234 233 233 232 232 231 231 231 231 231 230 230 230 230 231 232 233 233 232 231 231 230 228 226 227 228 229 230 232 234 235 234 233 232 233 235 236 238 238 238 237 238 240 240 241 241 242 243 243 244 246 247 248 249 249 249 248 248 247 247 247 247 247 247 247 246 246 246 247 247 247 247 247 247
234 233 232 231 230 231 231 232 232 232 231 230 230 230 231 231 233 233 233 232 231 230 229 227 226 226 228 230 231 232 234 235 233 233 233 235 236 237 237 238 238 238 240 241 241 242 242 243 243 244 246 247 248 249 250 250 249 249 248 247 247 247 247 247 247 247 247 246 246 246 246 247 247 247
235 234 233 232 231 231 231 232 233 232 232 231 230 230 230 230 231 232 233 232 231 230 230 229 227 227 227 229 231 233 235 236 235 233 233 234 236 237 238 237 237 237 238 239 240 241 242 242 243 244 245 247 248 249 250 250 250 249 248 247 247 247 247 247 247 247 247 247 247 247 246 247 247 248
234 234 234 233 232 231 231 230 231 232 231 231 230 230 230 230 231 232 232 232 231 231 230 229 228 228 229 230 231 232 234 235 236 234 233 233 234 235 236 237 237 237 237 238 238 239 240 241 242 243 244 245 247 248 248 248 249 248 248 248 248 248 247 247 247 246 246 246 246 247 247 247 247 248
231 231 232 232 232 231 230 229 230 230 230 229 229 229 229 230 230 231 232 233 232 231 230 230 228 227 228 230 232 232 233 234 235 235 234 234 235 235 236 236 236 236 236 237 237 237 238 240 241 242 243 243 244 246 246 245 246 248 249 248 247 247 247 246 246 246 245 246 246 246 246 247 247 247
229 227 226 227 228 229 229 229 230 231 230 229 229 229 229 229 229 230 231 232 233 233 232 231 230 228 228 228 231 232 233 234 234 235 235 235 235 236 237 236 236 236 236 236 237 238 237 238 239 240 240 241 242 243 244 244 245 247 248 248 246 247 247 246 245 245 245 245 245 245 246 246 246 247
229 227 224 223 224 225 227 228 230 232 231 230 229 229 229 229 229 230 231 231 233 233 233 232 231 231 230 229 229 231 232 234 234 235 236 236 236 237 238 237 237 237 236 236 237 238 238 237 236 237 238 239 240 242 244 245 246 247 247 247 246 247 247 246 245 244 244 245 245 245 246 246 246 247
229 228 225 222 221 223 225 228 230 232 231 230 229 228 228 228 229 229 230 231 232 233 234 233 232 231 231 231 231 231 231 232 233 234 235 236 236 237 238 238 237 237 237 237 236 237 239 239 236 235 236 238 239 241 243 245 246 246 246 246 246 247 246 245 245 245 244 245 245 246 246 246 247 247
226 226 225 223 221 221 223 225 227 229 229 229 228 227 227 227 227 227 228 230 231 233 233 233 233 232 232 232 232 232 232 232 232 232 234 236 236 237 237 238 238 237 237 237 236 235 236 238 237 234 234 235 237 239 241 242 244 245 245 245 246 246 246 246 245 244 245 245 246 246 246 246 246 246
222 222 223 223 222 221 221 222 223 225 226 227 227 226 226 226 226 226 227 228 229 231 232 233 233 232 232 232 232 232 233 233 233 233 234 236 237 238 238 238 239 239 238 238 238 237 236 235 235 235 234 234 235 236 238 240 242 243 244 244 244 245 246 246 245 244 244 245 245 245 246 246 246 245
221 222 222 223 224 223 222 222 222 223 224 226 226 226 225 226 226 226 227 228 229 230 231 232 232 232 232 232 232 233 233 234 234 234 234 235 236 238 239 239 239 239 239 239 239 239 238 237 236 235 235 235 235 235 236 237 239 240 242 243 244 244 244 245 244 244 244 245 245 246 246 246 246 246
221 223 223 223 224 224 224 224 223 223 224 225 226 226 226 226 227 227 227 228 229 230 231 232 232 233 233 233 233 233 234 234 234 234 234 234 235 236 237 239 239 239 240 240 239 239 240 240 239 238 237 237 236 235 235 235 235 236 238 240 241 242 243 243 243 243 243 244 245 245 245 245 245 245
224 225 226 226 226 225 225 225 225 224 224 225 225 226 227 228 228 229 229 229 230 230 231 232 233 233 233 234 234 234 234 235 235 235 234 234 235 235 236 238 239 239 240 240 240 240 240 240 241 240 240 240 239 238 237 236 235 235 236 238 239 239 240 241 241 242 242 242 243 243 242 242 243 243
229 229 229 229 229 229 229 228 227 226 225 225 225 226 228 228 229 229 230 230 231 231 232 233 233 233 234 234 235 235 235 236 236 236 235 235 235 235 236 237 238 239 240 240 240 240 241 241 241 241 241 241 242 242 241 240 239 238 239 239 239 239 239 239 239 239 239 239 240 241 241 240 240 241
232 232 231 231 231 230 230 230 230 229 227 226 225 225 226 228 229 229 230 230 231 231 232 233 233 234 234 234 235 236 236 237 237 237 237 237 237 236 236 236 237 238 240 240 240 240 241 241 242 242 242 242 242 243 243 243 242 242 242 242 242 242 241 240 240 240 239 238 238 239 240 240 241 241
224 226 227 228 228 229 229 230 230 231 231 230 228 227 227 227 228 229 229 230 231 232 232 233 233 234 234 234 234 235 236 237 238 238 238 238 238 237 237 236 236 237 238 239 241 241 241 241 242 242 243 243 243 243 244 245 245 244 244 244 244 244 243 242 242 242 241 240 240 239 240 240 240 241
213 215 217 220 223 225 226 227 228 229 230 230 230 230 229 229 229 229 229 230 230 231 232 232 232 233 233 234 234 234 235 236 237 238 238 238 238 238 238 237 237 237 238 239 240 241 241 241 241 242 242 243 243 243 243 244 245 246 245 245 245 245 245 245 244 244 243 243 242 242 241 241 241 241
205 215 222 227 232 235 236 236 236 235 234 233 232 231 230 230 229 229 230 230 231 231 231 231 231 232 232 233 233 234 235 236 236 237 237 238 239 239 240 240 239 239 239 239 240 241 241 242 242 241 242 242 242 242 242 242 243 244 245 246 246 246 246 246 246 245 245 245 244 244 244 244 244 243
234 246 251 254 255 256 255 254 251 249 246 244 242 239 236 234 233 231 231 231 231 231 231 232 232 232 233 233 233 234 235 236 237 237 238 239 239 240 240 240 240 240 240 240 240 240 241 241 242 242 241 241 241 242 242 241 242 243 244 244 245 245 246 247 247 247 246 246 246 246 246 246 246 246
260 266 268 269 268 266 265 264 262 259 256 252 249 247 244 241 239 237 235 234 234 233 233 232 232 233 233 234 234 235 236 237 238 238 238 239 240 240 240 240 240 240 240 239 239 240 240 240 240 241 241 241 241 242 242 242 242 242 243 244 243 243 243 244 246 247 247 247 247 247 247 247 247 247
273 277 279 279 278 275 273 270 269 267 263 259 254 251 248 245 242 241 239 237 236 235 235 234 234 234 234 234 234 235 237 238 240 240 240 240 241 241 241 241 241 240 240 240 240 239 239 239 239 239 240 240 240 241 241 242 242 242 243 243 243 242 241 241 242 244 246 247 247 247 247 246 247 247
283 286 287 287 286 284 280 277 274 270 267 263 259 254 251 248 244 241 239 238 237 236 235 235 235 235 236 236 236 236 237 239 240 241 242 242 242 242 241 241 241 241 241 241 241 240 239 239 238 238 239 239 239 239 240 240 241 241 242 242 242 242 241 240 240 241 242 244 245 247 247 247 246 246
287 289 290 291 289 287 283 279 274 269 265 262 259 255 251 247 243 239 238 237 236 236 235 235 235 236 237 238 239 240 242 243 243 244 245 244 243 243 242 241 241 241 241 241 242 242 241 241 240 240 240 239 239 238 238 239 239 240 240 241 241 242 242 242 241 241 241 242 243 245 246 247 247 247
287 289 293 294 293 291 287 281 273 268 262 258 254 252 249 245 241 239 237 236 235 235 235 235 235 236 237 239 240 243 244 246 247 246 246 245 244 243 242 241 241 240 240 241 241 242 242 242 241 242 242 241 241 240 239 239 239 239 239 240 241 242 243 243 243 243 242 242 242 243 244 246 247 248
287 293 299 301 302 302 297 286 277 271 265 257 251 247 244 241 239 237 235 234 234 234 235 235 235 235 235 236 237 239 241 242 243 243 243 243 243 243 242 241 240 239 239 240 241 242 242 242 242 242 242 242 242 242 241 241 240 240 240 240 241 241 242 243 244 244 244 243 243 243 244 245 246 247
292 301 307 309 313 314 304 289 280 274 266 256 247 241 237 236 235 233 233 233 233 233 233 233 232 232 231 231 231 233 235 237 239 240 242 242 242 242 242 241 240 239 239 239 240 241 241 242 242 242 242 242 243 242 242 242 242 242 242 242 242 242 242 243 243 243 243 244 243 244 244 244 245 246
296 307 314 317 323 325 314 296 286 275 262 251 242 234 229 228 228 228 229 230 231 231 231 230 228 227 225 224 225 228 232 236 239 241 243 243 244 244 243 243 242 241 241 241 240 240 241 241 241 241 241 242 243 243 242 242 242 242 242 242 242 243 243 243 243 243 243 244 244 244 244 244 245 245
300 313 320 323 334 340 335 321 303 273 244 232 228 222 217 217 219 220 221 224 226 226 226 224 221 219 218 219 223 228 234 238 242 244 246 247 248 249 249 248 247 247 246 245 244 244 243 242 242 242 242 242 242 242 242 243 243 243 243 243 243 243 243 244 244 244 244 245 245 245 245 245 245 246
306 318 325 330 344 357 1 2 1 325 197 188 190 196 199 203 207 210 214 216 216 215 213 213 212 212 213 217 223 230 236 241 244 247 249 251 252 253 254 254 254 253 252 252 251 250 249 248 246 245 245 244 244 243 243 243 243 243 244 244 244 244 244 244 244 245 245 246 246 246 247 247 247 247
312 325 332 338 353 8 17 25 35 53 90 123 144 157 168 179 187 193 198 201 200 200 201 204 206 208 212 218 226 235 240 244 247 250 252 254 255 256 256 257 257 257 256 256 255 254 253 252 250 249 247 246 245 244 244 244 243 243 243 244 244 244 244 244 245 245 245 246 246 247 248 248 248 249
326 340 343 349 1 15 26 35 43 53 66 83 101 117 132 146 159 169 175 179 183 187 192 198 203 209 217 226 234 240 244 247 249 251 253 254 255 255 255 256 256 256 256 257 257 256 256 254 252 250 249 248 247 246 245 245 244 244 244 244 244 244 245 244 245 245 245 246 246 247 247 248 248 249
9 15 10 7 10 20 32 42 49 56 63 71 82 95 110 127 142 155 164 172 179 186 193 201 209 218 226 232 237 241 244 246 247 249 250 252 253 254 256 257 257 257 257 257 257 258 258 258 257 254 251 249 248 248 247 247 246 246 245 245 245 245 245 245 245 245 245 245 246 246 247 247 247 248
30 39 38 31 26 29 35 43 52 61 67 73 79 88 99 113 127 143 157 170 181 190 198 206 214 221 227 231 235 238 241 244 246 248 250 252 255 257 258 259 259 259 258 256 255 254 255 257 259 258 255 252 250 249 249 249 249 248 247 247 246 246 246 246 246 246 246 247 247 247 247 247 247 248
36 48 52 48 43 42 43 47 53 59 67 76 86 95 106 118 130 143 156 170 182 193 202 210 217 223 229 233 237 241 244 247 250 252 254 256 257 258 258 258 258 258 257 256 254 254 254 256 258 259 258 255 252 250 249 250 250 250 249 248 248 247 247 247 247 247 247 247 248 248 248 248 249 249
40 49 57 60 58 54 51 52 55 59 64 71 81 93 110 130 148 165 179 191 200 208 215 221 227 232 237 240 244 247 249 252 254 255 256 256 256 256 256 255 255 255 256 256 256 256 256 256 256 257 257 256 255 252 250 250 249 249 248 248 248 248 249 249 249 249 249 249 249 249 249 249 250 251
44 44 48 56 62 63 59 55 55 59 63 68 73 80 92 109 132 163 186 202 213 220 226 231 235 238 242 245 247 250 252 253 254 254 255 255 256 256 256 256 257 257 258 259 259 258 258 257 256 255 255 254 253 252 250 250 250 250 250 250 251 251 251 251 251 251 251 251 251 251 251 251 251 252
47 44 42 44 50 59 65 65 63 62 64 68 73 76 79 84 89 100 139 196 223 234 240 244 246 248 250 252 253 254 255 255 256 256 256 256 257 257 258 258 259 260 260 260 260 260 259 258 257 255 254 253 253 252 252 253 254 254 254 254 253 252 252 251 251 251 252 252 252 252 251 251 251 251
36 37 37 36 35 40 52 65 72 74 72 72 74 74 75 75 70 63 46 311 281 271 267 264 262 260 260 260 260 261 261 260 260 260 259 260 259 259 259 259 259 259 259 258 258 257 256 255 254 254 254 255 255 255 256 257 257 256 254 253 252 252 251 251 251 252 252 252 252 252 252 251 250 250
18 19 20 23 26 26 31 42 58 68 72 70 67 67 67 66 59 35 333 299 284 276 272 270 268 267 266 266 267 267 267 267 267 267 267 266 265 264 263 262 261 260 259 258 257 256 256 256 257 257 258 258 258 257 256 256 255 253 252 252 252 252 253 252 252 252 252 253 253 253 253 252 251 249
358 2 5 11 21 29 31 32 35 43 49 49 44 41 39 36 27 3 329 305 291 286 283 280 279 278 277 276 276 276 276 277 276 276 276 275 274 273 271 270 268 267 265 264 263 262 262 262 263 263 262 260 259 257 256 255 254 253 253 253 253 254 253 253 252 252 252 253 253 253 253 252 251 249
340 352 3 17 32 41 47 47 42 38 37 33 28 24 18 12 4 351 337 322 311 303 298 294 291 290 288 287 286 286 286 286 285 283 282 281 280 279 277 276 274 273 271 270 269 268 267 266 264 263 261 260 259 258 257 256 256 256 256 256 256 256 255 255 254 253 253 253 253 253 253 253 252 250
9 26 43 59 65 63 60 58 54 47 40 32 25 18 10 2 354 345 335 326 318 312 307 303 302 300 299 299 299 298 297 295 293 291 289 287 285 283 281 278 276 274 272 271 270 269 268 267 266 265 264 263 262 261 260 259 259 259 259 259 259 259 258 258 257 256 256 256 256 256 255 254 253 252
58 68 77 80 79 73 65 58 52 44 36 27 19 9 360 352 346 340 334 328 324 321 319 317 315 313 312 311 310 309 306 304 301 299 297 294 292 289 286 283 280 278 275 274 272 270 269 268 267 266 266 265 264 264 263 262 262 262 262 263 263 263 262 261 260 259 259 259 259 259 257 256 256 255